| time (UTC) | temp F | wind direction | speed knots | gust knots | rain 1hr in | rain 24hr in | rain mn in | humidity % | barometer mb |
| 20260508131505 | 48 | 56 | 0.0 | 4.3 | 0.00 | 0.00 | 0.00 | 85 | 1016.0 |
| 20260508130002 | 47 | 77 | 0.0 | 4.3 | 0.00 | 0.00 | 0.00 | 84 | 1016.0 |
| 20260508124501 | 47 | 15 | 0.0 | 5.2 | 0.00 | 0.00 | 0.00 | 85 | 1016.1 |
| 20260508123001 | 47 | 10 | 0.0 | 8.7 | 0.00 | 0.00 | 0.00 | 84 | 1016.2 |
| 20260508121501 | 47 | 48 | 0.0 | 4.3 | 0.00 | 0.00 | 0.00 | 82 | 1016.3 |
| 20260508114559 | 48 | 44 | 0.9 | 7.8 | 0.00 | 0.00 | 0.00 | 80 | 1016.3 |
| 20260508113105 | 48 | 32 | 0.0 | 10.4 | 0.00 | 0.00 | 0.00 | 79 | 1016.3 |
| 20260508111609 | 49 | 341 | 0.9 | 8.7 | 0.00 | 0.00 | 0.00 | 80 | 1016.2 |
| 20260508110057 | 48 | 32 | 0.0 | 4.3 | 0.00 | 0.00 | 0.00 | 80 | 1016.0 |
| 20260508104600 | 48 | 77 | 1.7 | 10.4 | 0.00 | 0.00 | 0.00 | 78 | 1015.9 |
| 20260508103055 | 49 | 35 | 2.6 | 7.8 | 0.00 | 0.00 | 0.00 | 77 | 1015.8 |
| 20260508101550 | 48 | 89 | 0.0 | 4.3 | 0.00 | 0.00 | 0.00 | 79 | 1015.8 |
| 20260508100048 | 47 | 50 | 1.7 | 7.8 | 0.00 | 0.00 | 0.00 | 79 | 1015.8 |
| 20260508094548 | 47 | 52 | 0.9 | 7.8 | 0.00 | 0.00 | 0.00 | 80 | 1015.8 |
| 20260508093053 | 47 | 25 | 5.2 | 12.2 | 0.00 | 0.00 | 0.00 | 80 | 1015.8 |
| 20260508091556 | 47 | 71 | 0.9 | 7.8 | 0.00 | 0.00 | 0.00 | 80 | 1015.7 |
| 20260508090054 | 47 | 74 | 0.0 | 4.3 | 0.00 | 0.00 | 0.00 | 81 | 1015.7 |
| 20260508084539 | 46 | 15 | 0.0 | 7.0 | 0.00 | 0.00 | 0.00 | 83 | 1015.6 |
| 20260508083038 | 46 | 48 | 0.0 | 7.8 | 0.00 | 0.00 | 0.00 | 83 | 1015.5 |
| 20260508081541 | 46 | 63 | 0.0 | 3.5 | 0.00 | 0.00 | 0.00 | 84 | 1015.4 |
| 20260508080041 | 45 | 20 | 0.0 | 5.2 | 0.00 | 0.00 | 0.00 | 85 | 1015.5 |
| 20260508074533 | 45 | 25 | 0.0 | 2.6 | 0.00 | 0.00 | 0.00 | 85 | 1015.4 |
| 20260508073040 | 45 | 15 | 0.0 | 0.9 | 0.00 | 0.00 | 0.00 | 85 | 1015.2 |
| 20260508071535 | 45 | 25 | 0.0 | 6.1 | 0.00 | 0.00 | 0.00 | 85 | 1015.1 |
| 20260508070041 | 45 | 40 | 0.0 | 2.6 | 0.00 | 0.00 | 0.00 | 86 | 1015.0 |
| 20260508064534 | 45 | 8 | 0.0 | 2.6 | 0.00 | 0.00 | 0.00 | 86 | 1014.9 |
| 20260508063029 | 45 | 15 | 0.0 | 7.0 | 0.00 | 0.00 | 0.00 | 87 | 1014.8 |
| 20260508061526 | 45 | 357 | 0.0 | 7.0 | 0.00 | 0.00 | 0.00 | 88 | 1014.8 |
| 20260508060028 | 44 | 25 | 0.0 | 0.9 | 0.00 | 0.00 | 0.00 | 89 | 1014.8 |
| 20260508054528 | 44 | 30 | 0.0 | 9.6 | 0.00 | 0.00 | 0.00 | 89 | 1014.7 |
| 20260508053019 | 44 | 61 | 0.0 | 5.2 | 0.00 | 0.00 | 0.00 | 89 | 1014.7 |
| 20260508051516 | 44 | 50 | 0.0 | 3.5 | 0.00 | 0.00 | 0.00 | 90 | 1014.7 |
| 20260508050016 | 44 | 10 | 0.0 | 1.7 | 0.00 | 0.00 | 0.00 | 91 | 1014.5 |
| 20260508044512 | 44 | 89 | 0.0 | 2.6 | 0.00 | 0.00 | 0.00 | 91 | 1014.5 |
| 20260508043014 | 44 | 65 | 0.0 | 8.7 | 0.00 | 0.00 | 0.00 | 92 | 1014.3 |
| 20260508041508 | 44 | 9 | 0.0 | 1.7 | 0.00 | 0.00 | 0.00 | 92 | 1014.2 |
| 20260508040007 | 44 | 327 | 0.0 | 4.3 | 0.00 | 0.00 | 0.00 | 92 | 1014.1 |
| 20260508034507 | 44 | 356 | 0.0 | 7.8 | 0.00 | 0.00 | 0.00 | 92 | 1014.1 |
| 20260508033001 | 44 | 20 | 0.0 | 2.6 | 0.00 | 0.00 | 0.00 | 92 | 1014.0 |
| 20260508031559 | 44 | 5 | 0.0 | 7.0 | 0.00 | 0.00 | 0.00 | 92 | 1013.8 |
| 20260508030110 | 45 | 48 | 0.0 | 0.9 | 0.00 | 0.00 | 0.00 | 92 | 1013.8 |
| 20260508024620 | 44 | 25 | 0.0 | 1.7 | 0.00 | 0.00 | 0.00 | 92 | 1013.7 |
| 20260508023054 | 45 | 5 | 0.0 | 2.6 | 0.00 | 0.00 | 0.00 | 93 | 1013.6 |
| 20260508021553 | 45 | 42 | 0.0 | 2.6 | 0.00 | 0.00 | 0.00 | 93 | 1013.5 |
| 20260508020107 | 45 | 356 | 0.0 | 3.5 | 0.00 | 0.00 | 0.00 | 93 | 1013.4 |
| 20260508014559 | 45 | 52 | 0.0 | 0.0 | 0.00 | 0.00 | 0.00 | 93 | 1013.4 |
| 20260508013104 | 45 | 31 | 0.0 | 0.0 | 0.00 | 0.00 | 0.00 | 93 | 1013.4 |
| 20260508011557 | 45 | 346 | 0.0 | 0.0 | 0.00 | 0.00 | 0.00 | 93 | 1013.4 |
| 20260508010054 | 45 | 3 | 0.0 | 0.0 | 0.00 | 0.00 | 0.00 | 93 | 1013.6 |
| 20260508004548 | 45 | 350 | 0.0 | 0.0 | 0.00 | 0.00 | 0.00 | 93 | 1013.5 |
| 20260508003047 | 46 | 15 | 0.0 | 0.0 | 0.00 | 0.00 | 0.00 | 92 | 1013.4 |
| 20260508001553 | 46 | 20 | 0.0 | 1.7 | 0.00 | 0.00 | 0.00 | 92 | 1013.4 |
| 20260508000043 | 46 | 6 | 0.0 | 0.9 | 0.00 | 0.00 | 0.00 | 92 | 1013.3 |
| 20260507234542 | 46 | 356 | 0.0 | 0.0 | 0.00 | 0.00 | 0.00 | 92 | 1013.0 |
| 20260507233040 | 46 | 343 | 0.0 | 0.0 | 0.00 | 0.00 | 0.00 | 91 | 1012.9 |
| 20260507231541 | 47 | 337 | 0.0 | 0.9 | 0.00 | 0.00 | 0.00 | 91 | 1013.0 |
| 20260507230039 | 46 | 4 | 0.0 | 1.7 | 0.00 | 0.00 | 0.00 | 91 | 1013.0 |
| 20260507224538 | 46 | 351 | 0.0 | 0.9 | 0.00 | 0.00 | 0.00 | 91 | 1012.9 |
| 20260507223038 | 46 | 56 | 0.0 | 1.7 | 0.00 | 0.00 | 0.00 | 91 | 1012.8 |
| 20260507221537 | 47 | 48 | 0.0 | 0.9 | 0.00 | 0.00 | 0.00 | 92 | 1012.7 |
| 20260507220034 | 47 | 15 | 0.0 | 0.0 | 0.00 | 0.00 | 0.00 | 92 | 1012.8 |
| 20260507214538 | 47 | 342 | 0.0 | 7.0 | 0.00 | 0.00 | 0.00 | 92 | 1012.7 |
| 20260507213039 | 47 | 20 | 0.0 | 0.9 | 0.00 | 0.00 | 0.00 | 91 | 1012.6 |
| 20260507211543 | 47 | 347 | 0.0 | 0.0 | 0.00 | 0.00 | 0.00 | 91 | 1012.4 |
| 20260507210027 | 47 | 4 | 0.0 | 0.0 | 0.00 | 0.00 | 0.00 | 91 | 1012.3 |
| 20260507204525 | 47 | 8 | 0.0 | 0.0 | 0.00 | 0.00 | 0.00 | 91 | 1012.1 |
| 20260507203023 | 47 | 360 | 0.0 | 0.9 | 0.00 | 0.00 | 0.00 | 91 | 1011.9 |
| 20260507201534 | 47 | 337 | 0.0 | 2.6 | 0.00 | 0.00 | 0.00 | 91 | 1011.8 |
| 20260507200025 | 47 | 356 | 0.0 | 3.5 | 0.00 | 0.00 | 0.00 | 91 | 1011.6 |
| 20260507194521 | 47 | 1 | 0.0 | 0.9 | 0.00 | 0.00 | 0.00 | 91 | 1011.6 |
| 20260507193022 | 47 | 343 | 0.0 | 0.9 | 0.00 | 0.00 | 0.00 | 91 | 1011.5 |
| 20260507191522 | 47 | 342 | 0.0 | 2.6 | 0.00 | 0.00 | 0.00 | 91 | 1011.2 |
| 20260507190017 | 48 | 35 | 0.0 | 0.0 | 0.00 | 0.00 | 0.00 | 91 | 1011.1 |
| 20260507184515 | 48 | 66 | 0.0 | 5.2 | 0.00 | 0.00 | 0.00 | 91 | 1011.0 |
| 20260507183014 | 48 | 349 | 0.0 | 7.0 | 0.00 | 0.00 | 0.00 | 91 | 1011.0 |
| 20260507181512 | 48 | 323 | 0.0 | 0.0 | 0.00 | 0.00 | 0.00 | 91 | 1010.8 |
| 20260507180021 | 49 | 356 | 0.0 | 0.0 | 0.00 | 0.00 | 0.00 | 91 | 1010.7 |
| 20260507174515 | 49 | 326 | 0.0 | 4.3 | 0.00 | 0.00 | 0.00 | 91 | 1010.6 |
| 20260507173011 | 49 | 338 | 0.0 | 0.9 | 0.00 | 0.00 | 0.00 | 91 | 1010.4 |
| 20260507171506 | 49 | 352 | 0.0 | 7.8 | 0.00 | 0.00 | 0.00 | 90 | 1010.2 |
| 20260507170016 | 50 | 310 | 0.0 | 5.2 | 0.00 | 0.00 | 0.00 | 90 | 1009.9 |
| 20260507164503 | 50 | 351 | 0.0 | 5.2 | 0.00 | 0.00 | 0.00 | 90 | 1009.8 |
| 20260507163001 | 50 | 337 | 0.0 | 7.8 | 0.00 | 0.00 | 0.00 | 89 | 1009.6 |
| 20260507161505 | 51 | 314 | 0.0 | 2.6 | 0.00 | 0.00 | 0.00 | 89 | 1009.5 |
| 20260507160100 | 51 | 349 | 0.0 | 0.9 | 0.00 | 0.00 | 0.00 | 89 | 1009.6 |
| 20260507154602 | 51 | 320 | 0.0 | 7.0 | 0.00 | 0.00 | 0.00 | 89 | 1009.6 |
| 20260507153106 | 51 | 339 | 0.0 | 7.8 | 0.00 | 0.00 | 0.00 | 89 | 1009.3 |
| 20260507151555 | 52 | 306 | 0.0 | 4.3 | 0.00 | 0.00 | 0.00 | 88 | 1009.3 |
| 20260507144553 | 53 | 271 | 0.0 | 4.3 | 0.00 | 0.00 | 0.00 | 86 | 1008.9 |
| 20260507143102 | 54 | 307 | 0.9 | 7.0 | 0.00 | 0.00 | 0.00 | 85 | 1008.6 |
| 20260507141549 | 55 | 317 | 0.0 | 8.7 | 0.00 | 0.00 | 0.00 | 83 | 1008.2 |
| 20260507140046 | 58 | 277 | 0.0 | 7.8 | 0.00 | 0.00 | 0.00 | 81 | 1008.1 |
| 20260507134544 | 59 | 332 | 0.9 | 7.8 | 0.00 | 0.00 | 0.00 | 80 | 1008.0 |
| 20260507133047 | 60 | 319 | 0.9 | 7.0 | 0.00 | 0.00 | 0.00 | 80 | 1007.7 |